This is the latest recevied weather packets stored in our database for station/object N9VPV. If no packets are shown the sender has not sent any weather packets the latest 10 day(s).
| Time | Temp. | Humidity | Pressure | Rain* | Wind** | Luminosity | Snow |
|---|---|---|---|---|---|---|---|
| 1777406362 | 17.78° C | 62% | 1013.8 hPa | 0 mm | - | 341 W/m² | - |
| 1777405461 | 17.22° C | 60% | 1013.9 hPa | 0 mm | - | 373 W/m² | - |
| 1777404560 | 16.67° C | 62% | 1014.1 hPa | 0 mm | - | 394 W/m² | - |
| 1777403660 | 16.67° C | 66% | 1014.3 hPa | 0 mm | - | 418 W/m² | - |
| 1777402760 | 16.11° C | 66% | 1014.4 hPa | 0 mm | - | 432 W/m² | - |
| 1777401862 | 15.56° C | 65% | 1015.1 hPa | 0 mm | - | 478 W/m² | - |
| 1777400957 | 15° C | 70% | 1015.4 hPa | 0 mm | - | 471 W/m² | - |
| 1777400056 | 15° C | 66% | 1015.7 hPa | 0 mm | - | 239 W/m² | - |
| 1777399156 | 14.44° C | 70% | 1015.9 hPa | 0 mm | - | 299 W/m² | - |
| 1777398257 | 13.89° C | 71% | 1015.9 hPa | 0 mm | - | 172 W/m² | - |
| 1777397354 | 13.33° C | 71% | 1016.4 hPa | 0 mm | - | 489 W/m² | - |
| 1777396453 | 12.78° C | 75% | 1016.6 hPa | 0 mm | - | 371 W/m² | - |
| 1777395554 | 12.22° C | 74% | 1016.9 hPa | 0 mm | - | 35 W/m² | - |
| 1777394652 | 12.22° C | 75% | 1016.9 hPa | 0 mm | - | 53 W/m² | - |
| 1777393752 | 11.67° C | 75% | 1017.1 hPa | 0 mm | - | 127 W/m² | - |
| 1777392848 | 11.11° C | 77% | 1017 hPa | 0 mm | - | 0 W/m² | - |
| 1777391947 | 11.11° C | 77% | 1016.7 hPa | 0 mm | - | 0 W/m² | - |
| 1777391038 | 11.11° C | 77% | 1016.4 hPa | 0 mm | - | 0 W/m² | - |
| 1777390138 | 10.56° C | 79% | 1015.9 hPa | 0 mm | - | 11 W/m² | - |
| 1777389230 | 10.56° C | 80% | 1015.9 hPa | 0 mm | - | 0 W/m² | - |
| 1777388331 | 10.56° C | 81% | 1015.7 hPa | 0 mm | - | 0 W/m² | - |
| 1777387430 | 10.56° C | 80% | 1015.1 hPa | 0 mm | - | 0 W/m² | - |
| 1777386530 | 10.56° C | 81% | 1014.6 hPa | 0 mm | - | 0 W/m² | - |
| 1777385624 | 10° C | 82% | 1014.2 hPa | 0 mm | - | 0 W/m² | - |
| 1777384723 | 10° C | 81% | 1014.5 hPa | 0 mm | - | 0 W/m² | - |
* Rain latest hour (hover to see other rain measurements)
** Current wind speed in m/s (hover to see current wind gust speed)